This demonstration page uses our WeatherBlox Daily Observations layout. Learn more.

Left ArrowRight Arrow

Hourly Observations for April 12, 2020

Temp ( °F °C ) Dew Point ( °F °C ) Humidity (%) Winds ( mph kmh ) Pressure ( in mb ) Visibility ( mi km ) Precip ( " mm )
12:53 am 00:53 Cloudy 64 17.8 53 11.7 68 68 Calm 29.97 1015 10 16 0.00 0.00
1:53 am 01:53 Cloudy 62 16.7 54 12.2 75 75 E 3 6 29.97 1015 10 16 0.00 0.00
2:53 am 02:53 Cloudy 61 16.1 55 12.8 81 81 NE 3 6 29.97 1015 10 16 0.00 0.00
3:53 am 03:53 Cloudy 60 15.6 54 12.2 80 80 Calm 29.96 1015 10 16 0.00 0.00
4:53 am 04:53 Partly Cloudy 57 13.9 53 11.7 87 87 NNW 5 7 29.97 1015 10 16 0.00 0.00
5:53 am 05:53 Mostly Clear 57 13.9 52 11.1 83 83 NNW 3 6 29.97 1015 10 16 0.00 0.00
6:53 am 06:53 Sunny 57 13.9 42 5.6 58 58 NW 6 9 29.98 1015 10 16 0.00 0.00
7:53 am 07:53 Sunny 59 15 37 2.8 44 44 NNW 8 13 30.00 1016 10 16 0.00 0.00
8:53 am 08:53 Sunny 63 17.2 35 1.7 35 35 N 10 17 30.01 1016 10 16 0.00 0.00
9:53 am 09:53 Sunny 64 17.8 34 1.1 33 33 N 13 20 30.02 1017 10 16 0.00 0.00
10:53 am 10:53 Sunny 67 19.4 35 1.7 31 31 N 13 20 30.02 1017 10 16 0.00 0.00
11:53 am 11:53 Sunny 70 21.1 32 0 25 25 N 16 26 30.00 1016 10 16 0.00 0.00
12:53 pm 12:53 Sunny 72 22.2 29 -1.7 20 20 N 10 17 29.98 1015 10 16 0.00 0.00
1:53 pm 13:53 Sunny 73 22.8 31 -0.6 21 21 VRB 7 11 29.97 1015 10 16 0.00 0.00
2:53 pm 14:53 Sunny 76 24.4 33 0.6 21 21 NNE 8 13 29.94 1014 10 16 0.00 0.00
3:53 pm 15:53 Sunny 76 24.4 32 0 20 20 ENE 3 6 29.92 1013 10 16 0.00 0.00
4:53 pm 16:53 Sunny 77 25 34 1.1 21 21 NE 7 11 29.90 1013 10 16 0.00 0.00
5:53 pm 17:53 Sunny 77 25 30 -1.1 18 18 Calm 29.89 1012 10 16 0.00 0.00
6:53 pm 18:53 Sunny 75 23.9 32 0 21 21 SW 6 9 29.88 1012 10 16 0.00 0.00
7:53 pm 19:53 Clear 71 21.7 35 1.7 27 27 Calm 29.89 1012 10 16 0.00 0.00
8:53 pm 20:53 Clear 64 17.8 38 3.3 38 38 Calm 29.91 1013 10 16 0.00 0.00
9:53 pm 21:53 Clear 62 16.7 40 4.4 44 44 N 3 6 29.94 1014 10 16 0.00 0.00
10:53 pm 22:53 Clear 57 13.9 40 4.4 53 53 S 3 6 29.95 1014 10 16 0.00 0.00
11:53 pm 23:53 Clear 56 13.3 40 4.4 55 55 S 3 6 29.97 1015 10 16 0.00 0.00

Powered by AerisWeather